Caldwell, ID

9:42 AM MST on February 27, 2017 (GMT -0700)
Caldwell Industrial

Weather History for KEUL - February, 2012

Change the Weather History Date:

Wednesday, February 29, 2012

  Actual Average (KBOI) Record (KBOI)
Temperature  
Mean Temperature 40 °F -  
Max Temperature 46 °F - 71 °F (1992)
Min Temperature 33 °F - 11 °F (1960)
Degree Days  
Heating Degree Days 26    
Moisture  
Dew Point 19 °F    
Average Humidity 45    
Maximum Humidity 75    
Minimum Humidity 25    
Precipitation  
Precipitation 0.00 in - - ()
Sea Level Pressure  
Sea Level Pressure 29.77 in    
Wind  
Wind Speed 18 mph (SW)    
Max Wind Speed 29 mph    
Max Gust Speed 40 mph    
Visibility 10 miles    
Events      
Averages and records for this station are not official NWS values.
T = Trace of Precipitation, MM = Missing Value Source: NWS Daily Summary

Daily Weather History Graph

Daily Weather History Graph

Search for Another Location

Airport or City:

Trip Planner

Search our weather history database for the weather conditions in past years. The results will help you decide how hot, cold, wet, or windy it might be!

Date:

Astronomy

Feb. 29, 2012 Rise Set
Actual Time 7:23 AM MST 6:34 PM MST
Civil Twilight 6:55 AM MST 7:03 PM MST
Nautical Twilight 6:21 AM MST 7:36 PM MST
Astronomical Twilight 5:48 AM MST 8:10 PM MST
Moon 11:03 AM MST (2/29) 1:40 AM MST (2/29)
Length of Visible Light 12h 08m
Length of Day
11h 10m
Waxing Crescent, 48% of the Moon is Illuminated
Feb 29
Waxing Crescent
Feb 29
First Quarter
Mar 8
Full
Mar 14
Last Quarter
Mar 22
New

Hourly Weather History & Observations

Time (MST) Temp. Windchill Dew Point Humidity Pressure Visibility Wind Dir Wind Speed Gust Speed Precip Events Conditions
12:15 AM 41.0 °F 32.5 °F 17.6 °F 39% 29.77 in 10.0 mi SE 17.3 mph - N/A   Overcast
12:35 AM 41.0 °F 32.8 °F 19.4 °F 42% 29.77 in 10.0 mi SE 16.1 mph - N/A   Overcast
12:55 AM 42.8 °F 33.5 °F 19.4 °F 39% 29.76 in 10.0 mi ESE 23.0 mph 27.6 mph N/A   Overcast
1:15 AM 39.2 °F 28.7 °F 26.6 °F 61% 29.76 in 10.0 mi ESE 23.0 mph 28.8 mph N/A   Overcast
1:35 AM 39.2 °F 29.0 °F 26.6 °F 61% 29.75 in 10.0 mi ESE 21.9 mph 27.6 mph N/A   Overcast
1:55 AM 39.2 °F 29.0 °F 26.6 °F 61% 29.74 in 10.0 mi ESE 21.9 mph 26.5 mph N/A   Overcast
2:15 AM 39.2 °F 29.6 °F 26.6 °F 61% 29.73 in 10.0 mi ESE 19.6 mph 28.8 mph N/A   Overcast
2:35 AM 39.2 °F 28.7 °F 26.6 °F 61% 29.72 in 10.0 mi ESE 23.0 mph 28.8 mph N/A   Overcast
2:55 AM 39.2 °F 29.6 °F 26.6 °F 61% 29.71 in 10.0 mi ESE 19.6 mph 27.6 mph N/A   Overcast
3:15 AM 39.2 °F 28.7 °F 24.8 °F 56% 29.70 in 10.0 mi SE 23.0 mph 32.2 mph N/A   Overcast
3:35 AM 39.2 °F 28.3 °F 24.8 °F 56% 29.70 in 10.0 mi SE 25.3 mph 31.1 mph N/A   Mostly Cloudy
3:55 AM 39.2 °F 29.3 °F 24.8 °F 56% 29.68 in 10.0 mi SE 20.7 mph 26.5 mph N/A   Overcast
4:15 AM 39.2 °F 29.6 °F 24.8 °F 56% 29.68 in 10.0 mi SE 19.6 mph 24.2 mph N/A   Overcast
4:35 AM 39.2 °F 31.2 °F 24.8 °F 56% 29.67 in 10.0 mi SE 13.8 mph - N/A   Overcast
4:55 AM 39.2 °F 30.2 °F 24.8 °F 56% 29.67 in 10.0 mi SE 17.3 mph 24.2 mph N/A   Overcast
5:15 AM 39.2 °F 30.2 °F 24.8 °F 56% 29.67 in 10.0 mi SE 17.3 mph - N/A   Overcast
5:35 AM 39.2 °F 29.6 °F 24.8 °F 56% 29.66 in 10.0 mi SE 19.6 mph 25.3 mph N/A   Overcast
5:55 AM 39.2 °F 31.6 °F 26.6 °F 61% 29.66 in 10.0 mi SE 12.7 mph - N/A   Overcast
6:15 AM 42.8 °F 36.6 °F 23.0 °F 46% 29.67 in 10.0 mi South 11.5 mph - N/A   Overcast
6:35 AM 42.8 °F 36.2 °F 24.8 °F 49% 29.64 in 10.0 mi South 12.7 mph 18.4 mph N/A   Overcast
6:55 AM 42.8 °F 32.5 °F 24.8 °F 49% 29.68 in 10.0 mi SW 28.8 mph 40.3 mph N/A   Mostly Cloudy
7:15 AM 33.8 °F 23.2 °F 26.6 °F 75% 29.72 in 5.0 mi West 17.3 mph 34.5 mph N/A   Overcast
7:35 AM 33.8 °F 24.8 °F 26.6 °F 75% 29.72 in 10.0 mi WSW 12.7 mph - N/A   Mostly Cloudy
8:15 AM 33.8 °F 27.7 °F 26.6 °F 75% 29.73 in 10.0 mi SSW 6.9 mph - N/A   Overcast
8:55 AM 35.6 °F 28.0 °F 26.6 °F 70% 29.77 in 10.0 mi SSW 10.4 mph - N/A   Overcast
10:35 AM 37.4 °F 28.2 °F 21.2 °F 52% 29.81 in 10.0 mi West 16.1 mph 19.6 mph N/A   Scattered Clouds
10:55 AM 39.2 °F 29.6 °F 19.4 °F 45% 29.82 in 10.0 mi West 19.6 mph 25.3 mph N/A   Scattered Clouds
11:15 AM 39.2 °F 30.2 °F 19.4 °F 45% 29.83 in 10.0 mi West 17.3 mph 23.0 mph N/A   Clear
11:35 AM 39.2 °F 29.6 °F 21.2 °F 49% 29.83 in 10.0 mi West 19.6 mph 25.3 mph N/A   Clear
11:55 AM 41.0 °F 32.2 °F 17.6 °F 39% 29.83 in 10.0 mi West 18.4 mph 28.8 mph N/A   Clear
12:15 PM 42.8 °F 33.5 °F 17.6 °F 36% 29.83 in 10.0 mi WSW 23.0 mph 28.8 mph N/A   Clear
12:35 PM 42.8 °F 34.5 °F 17.6 °F 36% 29.83 in 10.0 mi West 18.4 mph 29.9 mph N/A   Clear
12:55 PM 42.8 °F 34.0 °F 15.8 °F 34% 29.82 in 10.0 mi West 20.7 mph 26.5 mph N/A   Clear
1:35 PM 44.6 °F 36.1 °F 14.0 °F 29% 29.82 in 10.0 mi West 21.9 mph 28.8 mph N/A   Clear
1:55 PM 44.6 °F 36.1 °F 12.2 °F 27% 29.82 in 10.0 mi West 21.9 mph 31.1 mph N/A   Clear
2:15 PM 44.6 °F 36.4 °F 12.2 °F 27% 29.82 in 10.0 mi WSW 20.7 mph 31.1 mph N/A   Clear
2:35 PM 46.4 °F 40.1 °F 14.0 °F 27% 29.82 in 10.0 mi West 15.0 mph 26.5 mph N/A   Mostly Cloudy
2:55 PM 44.6 °F 36.4 °F 12.2 °F 27% 29.82 in 10.0 mi West 20.7 mph 27.6 mph N/A   Scattered Clouds
3:15 PM 44.6 °F 36.4 °F 12.2 °F 27% 29.82 in 10.0 mi West 20.7 mph 28.8 mph N/A   Mostly Cloudy
3:35 PM 44.6 °F 37.2 °F 12.2 °F 27% 29.82 in 10.0 mi WSW 17.3 mph 25.3 mph N/A   Mostly Cloudy
3:55 PM 44.6 °F 36.6 °F 12.2 °F 27% 29.83 in 10.0 mi WSW 19.6 mph - N/A   Scattered Clouds
4:15 PM 46.4 °F 39.8 °F 14.0 °F 27% 29.83 in 10.0 mi WSW 16.1 mph 23.0 mph N/A   Mostly Cloudy
4:35 PM 42.8 °F 36.6 °F 12.2 °F 29% 29.82 in 10.0 mi West 11.5 mph 20.7 mph N/A   Mostly Cloudy
4:55 PM 44.6 °F 37.4 °F 10.4 °F 25% 29.82 in 10.0 mi West 16.1 mph - N/A   Partly Cloudy
5:35 PM 44.6 °F 37.8 °F 10.4 °F 25% 29.82 in 10.0 mi West 15.0 mph 24.2 mph N/A   Partly Cloudy
5:55 PM 42.8 °F 34.5 °F 10.4 °F 27% 29.83 in 10.0 mi WSW 18.4 mph 25.3 mph N/A   Clear
6:15 PM 41.0 °F 34.7 °F 10.4 °F 29% 29.82 in 10.0 mi West 10.4 mph - N/A   Clear
6:35 PM 39.2 °F 34.2 °F 10.4 °F 31% 29.83 in 10.0 mi West 6.9 mph - N/A   Clear
6:55 PM 39.2 °F 33.6 °F 12.2 °F 33% 29.83 in 10.0 mi West 8.1 mph - N/A   Clear
7:15 PM 39.2 °F 34.2 °F 12.2 °F 33% 29.83 in 10.0 mi West 6.9 mph - N/A   Clear
7:35 PM 37.4 °F 32.1 °F 12.2 °F 36% 29.84 in 10.0 mi SW 6.9 mph - N/A   Clear
7:55 PM 37.4 °F 34.9 °F 12.2 °F 36% 29.85 in 10.0 mi SW 3.5 mph - N/A   Clear
8:15 PM 35.6 °F - 12.2 °F 38% 29.85 in 10.0 mi Calm Calm - N/A   Clear
8:35 PM 33.8 °F 30.8 °F 12.2 °F 41% 29.85 in 10.0 mi ENE 3.5 mph - N/A   Clear
8:55 PM 30.2 °F - 12.2 °F 47% 29.85 in 10.0 mi Calm Calm - N/A   Clear
9:15 PM 32.0 °F 25.6 °F 14.0 °F 48% 29.85 in 10.0 mi South 6.9 mph - N/A   Clear
9:35 PM 35.6 °F - 15.8 °F 44% 29.85 in 10.0 mi Calm Calm - N/A   Clear
9:55 PM 37.4 °F - 15.8 °F 41% 29.85 in 10.0 mi Calm Calm - N/A   Scattered Clouds
10:15 PM 37.4 °F 31.4 °F 17.6 °F 45% 29.85 in 10.0 mi WSW 8.1 mph - N/A   Overcast
10:35 PM 37.4 °F 30.8 °F 15.8 °F 41% 29.85 in 10.0 mi West 9.2 mph 16.1 mph N/A   Overcast
10:55 PM 37.4 °F 32.1 °F 17.6 °F 45% 29.85 in 10.0 mi WSW 6.9 mph - N/A   Overcast
11:35 PM 37.4 °F 29.3 °F 19.4 °F 48% 29.86 in 10.0 mi SW 12.7 mph - N/A   Overcast
11:55 PM 37.4 °F 33.8 °F 19.4 °F 48% 29.86 in 10.0 mi SW 4.6 mph - N/A   Overcast